CAPE
0 0 0 0 0 0 0 0 0 0 0 0 0 0 0 0 0 0 0 0 0 0 0 0 0 0 0 0 0 0 0 0 0 0 0 0 0 0 0 0 0 0 0 0 0 0 0
0 0 0 0 0 0 0 0 0 0 0 0 0 0 0 0 0 0 0 0 0 0 0 0 1 0 0 0 0 0 0 0 0 0 0 0 0 0 0 0 0 0 0 0 0 0 0
0 0 0 0 0 0 0 0 0 0 0 0 0 0 0 0 0 0 0 0 0 0 0 0 2 0 0 0 0 0 0 0 0 0 0 0 0 0 0 0 0 0 0 0 0 0 0
0 0 0 0 0 0 0 0 0 0 0 0 0 0 0 0 0 0 0 0 0 0 0 1 0 0 0 0 0 0 0 0 0 0 0 0 0 0 0 0 0 0 0 0 0 0 0
0 0 0 0 0 0 0 0 0 0 0 0 0 0 0 0 0 0 0 0 0 0 0 0 0 0 0 0 0 0 0 0 0 0 0 0 0 0 0 0 0 0 0 0 0 0 0
4 2 2 1 1 0 0 0 0 0 0 0 1 0 0 0 0 0 0 0 0 0 0 1 2 0 0 0 0 0 0 0 0 0 0 0 0 0 0 0 0 0 0 0 0 0 0
9 7 3 2 1 4 5 1 0 0 0 1 2 1 0 0 0 0 0 0 0 2 0 0 0 0 0 0 0 0 0 0 0 0 0 0 0 0 0 0 0 0 0 0 0 0 0
1 3 9 5 6 7 10 10 0 0 0 0 1 0 0 0 0 0 0 0 1 7 4 0 0 0 0 0 0 0 0 0 0 0 0 0 0 0 0 0 0 0 0 0 0 0 0
1 0 0 1 23 21 30 28 0 0 0 6 0 0 0 0 0 0 0 0 0 2 13 0 0 0 0 0 0 0 0 0 0 0 0 0 0 0 0 0 0 0 0 0 0 0 0
4 3 0 0 0 11 48 43 23 3 0 6 0 0 0 0 0 0 1 0 0 1 6 0 0 0 0 0 0 0 0 0 0 0 0 0 0 0 0 0 0 0 0 0 0 0 0
8 11 11 6 0 0 5 14 9 10 17 23 0 0 0 0 0 2 0 0 0 0 16 0 0 0 0 0 0 0 0 0 0 0 0 0 0 0 0 0 0 0 0 0 0 0 0
0 0 9 15 16 8 10 10 12 12 11 35 0 0 0 0 0 0 0 1 3 22 22 0 0 0 0 0 0 0 0 0 0 0 0 0 0 0 0 0 0 0 0 0 0 0 0
0 0 4 25 21 20 24 11 1 1 14 14 17 2 0 0 2 0 0 2 17 49 0 0 0 0 0 0 0 0 0 0 0 0 0 0 0 0 0 0 0 0 0 0 1 0 0
56 59 50 50 42 31 42 30 12 2 19 1 16 11 4 14 13 0 42 6 14 0 0 0 0 0 0 0 0 0 0 0 0 0 0 0 0 0 0 0 0 0 0 2 5 8 27
53 71 53 48 42 38 33 34 48 36 32 28 29 25 3 2 1 11 54 17 1 0 0 0 0 0 0 0 0 0 0 0 0 0 0 0 0 0 0 0 0 0 20 3 34 10 50
48 79 87 71 56 57 53 41 30 41 48 37 101 20 3 8 1 53 65 5 13 0 2 1 0 0 0 1 0 0 0 0 0 0 0 0 0 0 0 0 0 8 8 19 68 42 53
94 86 57 83 70 81 70 53 32 37 51 46 87 70 42 0 0 12 22 13 2 1 0 10 5 5 12 2 1 0 0 0 0 0 0 0 1 0 0 0 0 1 1 11 11 33 44
77 59 60 54 43 44 46 49 37 20 34 56 82 69 14 43 2 2 27 11 3 3 0 0 6 12 32 9 13 14 4 3 0 0 0 0 19 10 1 0 1 3 0 19 108 27 64
87 45 43 47 51 45 51 42 18 28 23 110 109 72 17 66 52 22 0 7 21 8 2 0 24 48 44 45 38 12 8 2 13 16 35 43 44 17 4 20 0 1 18 17 0 2 2
73 87 27 52 40 41 43 43 18 24 37 107 77 28 38 11 29 62 31 16 31 13 18 17 0 7 23 16 27 18 6 1 21 36 1 7 62 106 80 23 1 62 20 21 27 85 8
141 134 113 94 73 63 48 27 46 30 30 89 76 74 95 50 14 24 51 68 35 19 25 25 11 3 6 30 33 27 15 6 9 14 15 18 53 9 7 14 3 42 27 11 19 36 32
173 143 132 100 92 114 99 107 88 54 48 73 5 106 42 119 16 40 52 74 39 44 17 27 36 24 43 55 40 28 30 34 21 27 21 44 70 23 18 8 28 40 6 5 12 0 7
260 222 148 109 90 71 95 109 106 102 71 110 135 24 29 35 66 104 68 51 30 22 16 18 57 23 56 37 43 46 49 27 30 33 45 52 52 46 59 15 31 66 0 0 1 0 1
229 231 137 87 91 84 132 128 121 122 65 53 123 149 148 56 162 110 50 90 33 105 88 12 15 97 74 43 43 0 41 69 35 17 41 41 53 81 64 52 69 1 0 6 7 10 9
157 138 165 116 197 167 146 144 146 163 101 56 98 118 129 93 21 12 12 10 18 27 39 42 9 40 57 15 56 151 96 38 5 7 58 69 121 111 151 57 19 3 0 24 69 2 5
150 152 183 181 206 206 184 142 154 181 123 180 70 90 42 14 0 6 19 57 49 53 68 72 31 74 88 36 109 43 91 51 32 100 191 227 187 105 133 82 46 3 2 0 89 72 80
89 156 177 156 174 107 189 158 131 143 105 190 139 79 32 19 1 0 3 7 9 82 103 66 15 7 109 62 78 83 120 100 91 86 150 197 173 287 259 172 118 67 26 0 104 51 0
69 95 132 201 203 184 85 15 67 114 72 189 79 171 28 21 4 1 0 0 4 25 26 29 0 10 46 238 303 115 284 179 204 167 111 100 192 230 240 161 133 54 31 18 28 0 0
57 73 97 155 205 191 187 127 10 22 24 111 63 86 99 35 14 14 11 4 4 2 38 24 4 6 46 18 22 18 9 0 195 165 126 198 175 185 172 220 146 26 3 14 5 1 2
CIN
-0 -0 -0 -0 -0 -0 -0 -0 -0 -0 -0 -0 -0 -0 -0 -0 -0 -0 -0 -0 -0 -0 -0 -0 -0 -0 -0 -0 -0 -0 -0 -0 -0 -0 -0 -0 -0 -0 -0 -0 -0 -0 -0 -0 -0 -0 -0
-0 -0 -0 -0 -0 -0 -0 -0 -0 -0 -0 -0 -0 -0 -0 -0 -0 -0 -0 -0 -0 -0 -0 -0 -0 -0 -0 -0 -0 -0 -0 -0 -0 -0 -0 -0 -0 -0 -0 -0 -0 -0 -0 -0 -0 -0 -0
-0 -0 -0 -0 -0 -0 -0 -0 -0 -0 -0 -0 -0 -0 -0 -0 -0 -0 -0 -0 -0 -0 -0 -0 -0 -0 -0 -0 -0 -0 -0 -0 -0 -0 -0 -0 -0 -0 -0 -0 -0 -0 -0 -0 -0 -0 -0
-0 -0 -0 -0 -0 -0 -0 -0 -0 -0 -0 -0 -0 -0 -0 -0 -0 -0 -0 -0 -0 -0 -0 -0 -0 -0 -0 -0 -0 -0 -0 -0 -0 -0 -0 -0 -0 -0 -0 -0 -0 -0 -0 -0 -0 -0 -0
-0 -0 -0 -0 -0 -0 -0 -0 -0 -0 -0 -0 -0 -0 -0 -0 -0 -0 -0 -0 -0 -0 -0 -0 -0 -0 -0 -0 -0 -0 -0 -0 -0 -0 -0 -0 -0 -0 -0 -0 -0 -0 -0 -0 -0 -0 -0
-0 -0 -0 -0 -0 -0 -0 -0 -0 -0 -0 -0 -0 -0 -0 -0 -0 -0 -0 -0 -0 -0 -0 -0 -0 -0 -0 -0 -0 -0 -0 -0 -0 -0 -0 -0 -0 -0 -0 -0 -0 -0 -0 -0 -0 -0 -0
-0 -0 -0 -0 -0 -0 -0 -0 -0 -0 -0 -0 -0 -0 -0 -0 -0 -0 -0 -0 -0 -0 -0 -0 -0 -0 -0 -0 -0 -0 -0 -0 -0 -0 -0 -0 -0 -0 -0 -0 -0 -0 -0 -0 -0 -0 -0
-0 -0 -0 -0 -0 -0 -0 -0 -0 -0 -0 -0 -0 -0 -0 -0 -0 -0 -0 -0 -0 -0 -0 -0 -0 -0 -0 -0 -0 -0 -0 -0 -0 -0 -0 -0 -0 -0 -0 -0 -0 -0 -0 -0 -0 -0 -0
-0 -0 -0 -0 -0 -0 -0 -0 -0 -0 -0 -0 -0 -0 -0 -0 -0 -0 -0 -0 -0 -0 -0 -0 -0 -0 -0 -0 -0 -0 -0 -0 -0 -0 -0 -0 -0 -0 -0 -0 -0 -0 -0 -0 -0 -0 -0
-0 -0 -0 -0 -0 -1 -0 -0 -0 -0 -0 -0 -0 -0 -0 -0 -0 -0 -0 -0 -0 -0 -0 -0 -0 -0 -0 -0 -0 -0 -0 -0 -0 -0 -0 -0 -0 -0 -0 -0 -0 -0 -0 -0 -0 -0 -0
-0 -0 -0 -0 -0 -0 -0 -2 -0 -0 -0 -1 -0 -0 -0 -0 -0 -0 -0 -0 -0 -0 -0 -0 -0 -0 -0 -0 -0 -0 -0 -0 -0 -0 -0 -0 -0 -0 -0 -0 -0 -0 -0 -0 -0 -0 -0
-0 -0 -0 -0 -0 -0 -0 -1 -2 -1 -1 -1 -1 -0 -0 -0 -0 -0 -0 -16 -9 -0 -0 -0 -0 -0 -0 -0 -0 -0 -0 -0 -0 -0 -0 -0 -0 -0 -0 -0 -0 -0 -0 -0 -0 -0 -0
-0 -0 -0 -0 -0 -0 -1 -1 -2 -0 -1 -2 -2 -1 -0 -0 -1 -22 -0 -2 -0 -0 -0 -0 -0 -0 -0 -0 -0 -0 -0 -0 -0 -0 -0 -0 -0 -0 -0 -0 -0 -0 -0 -0 -0 -0 -0
-0 -0 -0 -1 -0 -0 -0 -0 -1 -11 -7 -0 -3 -10 -0 -2 -22 -0 -2 -0 -0 -0 -0 -0 -0 -0 -0 -0 -0 -0 -0 -0 -0 -0 -0 -0 -0 -0 -0 -0 -0 -0 -0 -0 -0 -0 -0
-1 -2 -2 -3 -5 -5 -3 -5 -1 -2 -6 -7 -10 -0 -1 -18 -27 -13 -0 -0 -0 -0 -0 -0 -0 -0 -0 -0 -0 -0 -0 -0 -0 -0 -0 -0 -0 -0 -0 -0 -0 -0 -0 -0 -0 -0 -0
-2 -0 -0 -1 -2 -2 -2 -4 -6 -13 -19 -17 -0 -5 -3 -29 -17 -0 -0 -0 -0 -0 -0 -0 -0 -0 -0 -0 -0 -0 -0 -0 -0 -0 -0 -0 -0 -0 -0 -0 -0 -0 -2 -0 -0 -0 -0
-0 -0 -0 -0 -1 -1 -0 -3 -5 -6 -15 -13 -0 -0 -0 -0 -0 -0 -0 -0 -0 -0 -0 -0 -0 -0 -0 -0 -0 -0 -0 -0 -0 -0 -0 -0 -0 -0 -0 -0 -0 -3 -0 -0 -0 -0 -0
-1 -1 -2 -1 -2 -2 -2 -1 -3 -9 -9 -1 -0 -0 -1 -0 -0 -0 -0 -0 -0 -0 -0 -0 -0 -0 -0 -0 -0 -0 -0 -0 -0 -0 -0 -0 -0 -0 -0 -0 -0 -0 -0 -1 -0 -0 -0
-0 -0 -0 -3 -4 -3 -3 -1 -3 -5 -8 -0 -0 -0 -6 -0 -0 -0 -0 -0 -0 -0 -0 -0 -3 -0 -0 -0 -0 -0 -0 -1 -0 -0 -1 -0 -0 -0 -0 -0 -0 -0 -0 -4 -0 -2 -0
-6 -0 -0 -0 -0 -1 -2 -1 -0 -2 -2 -0 -0 -4 -0 -2 -0 -0 -0 -0 -0 -0 -0 -0 -0 -0 -0 -0 -0 -0 -0 -0 -0 -3 -8 -0 -0 -0 -0 -0 -0 -0 -0 -0 -2 -0 -0
-3 -3 -1 -0 -0 -4 -12 -0 -0 -0 -0 -0 -0 -3 -0 -0 -0 -0 -0 -0 -0 -0 -0 -0 -0 -0 -0 -0 -0 -0 -0 -0 -0 -1 -6 -0 -0 -0 -0 -0 -0 -0 -0 -0 -5 -0 -1
-1 -2 -4 -2 -0 -0 -0 -0 -4 -0 -0 -3 -17 -0 -0 -0 -9 -10 -1 -0 -0 -0 -0 -0 -0 -0 -0 -0 -0 -0 -0 -0 -0 -0 -0 -0 -0 -0 -0 -0 -0 -0 -0 -0 -0 -0 -8
-0 -0 -1 -3 -2 -0 -0 -0 -1 -1 -2 -0 -0 -14 -0 -2 -0 -0 -4 -2 -0 -14 -2 -4 -0 -0 -0 -0 -0 -0 -0 -0 -0 -0 -0 -0 -0 -0 -0 -0 -1 -0 -0 -0 -13 -0 -3
-0 -0 -0 -1 -0 -1 -0 -0 -0 -0 -2 -1 -0 -0 -0 -0 -0 -0 -0 -0 -0 -0 -0 -0 -0 -0 -0 -2 -0 -5 -1 -0 -0 -0 -0 -0 -0 -0 -0 -0 -0 -0 -0 -0 -5 -33 -44
-0 -1 -0 -1 -0 -0 -0 -0 -0 -0 -0 -8 -0 -0 -0 -0 -0 -0 -0 -0 -0 -0 -0 -0 -2 -0 -0 -2 -0 -0 -0 -2 -0 -27 -0 -0 -0 -0 -0 -0 -0 -0 -0 -0 -4 -0 -3
-0 -0 -0 -0 -0 -0 -1 -1 -0 -0 -0 -0 -2 -0 -5 -16 -0 -0 -6 -0 -0 -0 -0 -2 -4 -0 -0 -0 -1 -0 -0 -0 -0 -0 -0 -0 -0 -0 -0 -0 -0 -29 -0 -0 -8 -0 -0
-0 -0 -0 -0 -0 -0 -0 -0 -0 -0 -0 -0 -0 -0 -5 -9 -0 -0 -0 -6 -16 -0 -0 -3 -0 -3 -0 -0 -0 -0 -0 -0 -0 -0 -0 -0 -0 -0 -0 -0 -0 -0 -44 -19 -0 -13 -0
-0 -0 -1 -0 -0 -0 -1 -0 -0 -0 -1 -0 -0 -0 -0 -0 -0 -0 -0 -0 -0 -0 -4 -9 -0 -0 -6 -0 -0 -1 -0 -0 -0 -0 -0 -0 -0 -0 -0 -0 -0 -41 -28 -13 -7 -0 -0
-12 -0 -0 -0 -0 -0 -0 -0 -0 -0 -0 -0 -0 -0 -0 -0 -0 -0 -0 -0 -0 -0 -0 -4 -0 -0 -0 -0 -0 -0 -0 -0 -0 -0 -0 -1 -0 -0 -0 -0 -0 -7 -12 -10 -0 -1 -21
Wind_Speed
15 15 14 13 13 13 12 12 11 11 10 10 8 9 10 9 9 9 9 11 14 15 16 15 14 16 11 9 10 3 5 6 8 7 6 7 7 5 9 5 5 10 7 6 5 2 4
15 16 16 15 14 13 14 13 12 12 11 11 10 9 8 9 9 8 8 10 13 15 14 14 11 15 7 17 2 1 8 12 9 8 7 5 3 5 7 6 10 2 8 8 7 7 6
17 17 16 15 14 14 15 13 12 12 12 12 10 10 9 8 6 6 9 10 13 14 13 11 11 8 7 18 5 9 10 8 6 8 8 2 2 5 3 6 3 5 12 11 13 12 10
19 19 18 16 15 14 14 14 14 14 14 12 10 10 8 4 4 7 9 13 15 14 11 7 6 7 11 2 7 10 6 4 2 5 4 2 3 6 5 2 5 10 7 13 9 12 8
20 19 18 15 15 15 12 13 12 14 14 13 11 8 7 4 3 7 12 16 15 10 2 4 6 6 13 4 5 4 4 5 5 3 4 1 4 7 4 11 10 11 14 12 7 9 7
7 7 8 10 10 10 9 9 9 10 9 8 8 5 3 2 5 8 14 16 8 6 4 5 4 6 9 5 1 4 11 9 5 2 5 8 7 10 8 12 14 12 12 10 12 9 11
3 5 6 5 5 4 7 10 10 10 9 8 8 7 5 7 8 8 12 5 7 8 6 8 5 10 21 13 13 13 4 10 11 10 13 12 11 14 14 15 18 11 12 13 9 5 6
12 9 1 5 2 2 4 4 8 8 7 5 6 6 5 6 10 11 6 3 4 6 11 15 22 25 30 19 14 15 9 10 14 22 17 16 19 18 15 13 15 16 16 16 15 9 11
5 6 5 8 6 7 7 7 7 8 7 5 7 5 3 4 7 2 3 2 7 3 9 11 19 13 13 11 13 14 12 8 18 19 22 24 11 4 13 16 16 18 17 15 14 8 14
3 6 4 6 8 10 10 9 7 7 6 7 8 5 3 1 3 1 1 4 5 4 9 4 6 3 5 5 7 4 8 10 9 14 17 20 22 26 19 19 16 19 14 12 16 12 12
2 4 5 6 7 9 11 8 11 10 9 9 10 7 3 2 3 2 1 5 5 4 8 7 6 5 4 6 5 4 6 8 12 8 8 8 8 16 23 24 16 15 7 11 12 15 16
4 4 3 6 8 11 12 10 10 11 10 10 10 8 7 1 0 1 3 6 2 5 11 5 6 5 5 6 3 5 6 7 3 10 12 15 3 6 11 8 13 5 7 7 7 9 14
10 12 12 8 6 7 7 4 2 6 11 11 10 11 7 4 3 2 1 2 5 9 2 5 2 5 2 2 3 6 7 8 7 6 9 10 19 14 10 9 6 15 11 5 9 8 11
11 12 12 10 8 7 8 8 7 4 2 4 6 12 6 4 4 3 3 2 9 6 11 1 1 3 3 2 2 2 3 8 8 7 9 8 8 13 17 20 13 20 17 10 11 12 13
10 11 10 8 7 7 7 7 8 10 8 4 5 4 4 6 6 4 6 6 7 5 3 4 3 2 3 1 3 3 5 2 6 7 6 5 9 2 4 12 15 12 16 16 20 22 13
12 12 12 11 10 9 8 6 5 8 11 13 4 3 3 9 6 5 7 11 10 6 3 2 6 3 8 4 7 3 6 5 7 13 7 8 10 13 12 8 11 16 4 6 10 7 19
14 14 14 12 9 10 9 8 5 5 7 10 4 3 3 10 5 3 10 11 13 14 12 5 3 3 2 1 3 1 1 8 5 5 9 11 3 3 6 9 12 9 13 13 11 14 13
14 12 12 11 9 8 9 9 7 5 4 6 3 6 7 10 4 3 9 10 8 10 2 7 11 8 4 3 4 4 6 2 8 7 14 8 6 12 16 13 15 15 16 17 13 13 12
14 12 11 11 10 9 10 10 8 7 5 2 3 2 3 4 8 8 11 13 11 11 14 7 6 7 5 10 8 14 16 1 8 7 3 3 5 7 11 12 5 13 16 13 12 11 18
17 14 14 14 13 12 11 11 10 10 8 4 3 4 4 4 3 17 19 20 14 10 17 13 9 12 14 15 15 10 17 10 6 5 5 1 2 7 14 15 11 11 11 10 11 6 12
18 18 17 16 14 14 13 12 12 10 8 4 4 3 5 5 7 5 17 9 22 18 14 13 10 19 17 15 16 17 18 16 14 13 13 6 7 15 20 21 21 21 19 23 23 20 12
20 20 19 17 16 16 15 14 13 12 8 4 3 4 2 10 5 7 8 8 23 17 13 13 16 14 14 18 18 16 11 11 11 7 10 12 12 14 21 20 20 24 22 25 26 27 25
20 20 20 19 19 18 17 14 13 13 11 6 4 3 1 6 11 11 6 12 7 11 5 11 7 9 15 16 12 11 12 14 15 14 14 14 10 10 17 16 17 14 25 25 29 24 21
22 21 22 20 22 21 19 16 14 14 15 4 3 4 4 8 5 9 7 7 11 8 1 5 7 10 1 10 8 8 17 17 18 20 17 19 17 12 14 16 19 18 19 17 21 24 22
22 21 23 23 23 21 20 18 17 16 17 6 3 3 3 7 8 6 9 11 9 5 11 12 15 14 1 1 2 6 8 8 16 24 22 21 18 12 14 15 18 24 23 20 14 21 21
24 22 23 23 20 21 21 20 19 18 18 8 5 3 3 3 7 10 5 3 3 3 6 7 6 7 9 6 4 6 7 7 6 5 6 14 16 10 10 14 16 17 5 8 10 18 18
26 24 23 24 25 24 22 23 21 19 18 9 4 9 4 4 4 5 6 5 5 3 4 3 5 6 12 8 10 12 15 12 11 14 9 6 6 14 13 10 5 14 6 6 13 4 13
27 26 24 24 25 22 20 16 21 21 18 11 6 10 6 3 4 3 5 8 6 4 5 2 5 2 4 3 4 2 5 7 12 13 11 11 7 7 9 7 11 12 4 8 9 8 12
27 27 26 25 24 23 22 20 12 17 17 16 5 7 7 4 3 0 5 9 13 11 5 4 6 5 3 2 3 4 7 4 12 3 5 6 11 6 5 3 5 5 6 12 9 11 17
Wind_Direction
231 232 230 229 231 232 233 235 237 241 247 250 250 262 273 287 295 300 305 307 308 312 311 319 324 323 320 299 270 71 321 308 308 317 303 310 289 295 246 243 221 231 199 195 161 219 250
226 230 229 229 229 231 236 232 231 239 240 246 246 253 264 280 293 304 302 299 300 303 306 313 318 307 297 289 49 269 302 295 285 252 253 264 307 336 291 263 251 178 241 216 197 206 234
227 230 233 231 230 233 231 228 233 235 238 238 237 246 253 268 288 292 295 297 292 288 301 301 301 279 256 267 304 306 291 292 299 261 225 223 279 252 343 256 284 260 250 219 220 218 214
230 227 227 225 230 230 232 235 231 230 236 233 236 243 246 221 265 291 301 292 281 290 298 295 252 256 265 254 306 286 262 170 105 202 240 263 249 277 248 344 237 248 254 240 178 188 168
230 230 230 228 229 233 232 236 239 243 239 231 225 215 176 176 289 320 306 289 287 288 228 185 225 250 273 124 239 203 261 349 358 137 207 172 228 273 200 235 238 214 258 217 184 216 168
76 83 108 120 118 120 112 97 84 69 73 74 74 83 105 94 360 326 303 283 294 188 182 206 265 254 238 266 127 267 271 285 282 200 200 219 229 243 217 232 237 252 231 243 244 176 223
120 127 123 83 88 106 117 120 107 86 90 95 97 77 24 11 337 328 307 281 228 205 224 256 266 278 286 277 290 272 347 260 213 238 230 204 228 227 241 235 269 284 268 262 257 163 261
26 15 91 131 184 189 172 165 126 120 117 115 93 93 83 21 344 328 281 360 29 350 287 260 254 255 259 273 276 253 262 252 210 227 226 231 237 245 259 261 253 254 256 252 261 246 252
328 319 345 23 259 217 216 203 152 153 147 152 128 113 61 39 348 358 17 58 338 297 261 257 239 261 259 228 237 266 216 223 242 242 227 232 238 211 253 237 238 239 254 264 267 293 260
294 293 296 308 303 329 217 205 182 177 177 168 149 156 164 357 93 61 178 307 296 227 278 245 215 231 186 214 236 216 209 222 216 247 233 253 252 251 243 239 237 251 244 252 262 262 264
229 265 270 257 261 259 288 219 193 195 199 194 175 185 160 347 137 189 155 286 273 230 271 111 145 117 169 215 334 178 203 195 233 210 196 227 229 227 231 241 232 271 238 240 254 254 265
259 280 273 280 253 251 248 236 207 200 206 203 182 168 150 102 111 329 340 300 235 221 241 164 139 179 201 214 222 139 196 221 221 235 234 259 310 257 242 244 247 255 221 227 233 245 248
224 245 251 238 247 258 253 209 191 232 210 203 190 171 185 175 144 114 246 11 178 230 76 138 148 174 247 220 224 213 187 193 224 227 215 233 232 222 225 210 191 197 194 227 224 210 250
235 234 235 231 227 230 239 224 217 201 179 187 192 164 199 208 155 124 108 121 222 219 225 53 97 303 256 343 179 207 222 244 232 257 286 275 230 200 207 233 216 209 212 233 257 255 275
242 239 233 234 236 235 236 225 211 203 201 179 149 170 172 188 177 174 172 218 221 230 308 305 269 283 278 349 292 292 222 226 40 360 250 304 245 128 225 217 229 239 222 253 266 273 278
248 248 235 225 224 224 224 223 225 232 210 181 178 203 203 163 167 197 204 233 224 206 329 308 232 223 233 210 211 209 202 129 113 38 1 10 282 235 245 221 231 249 269 210 216 242 245
253 254 247 239 229 232 218 205 203 241 255 203 201 207 175 146 107 210 216 213 240 256 289 291 282 243 214 319 310 301 154 103 71 49 9 6 262 250 306 218 243 200 234 235 270 245 261
244 246 233 221 224 223 217 208 200 212 257 206 202 211 157 152 163 210 226 212 248 224 225 242 232 243 254 263 273 279 252 302 282 280 300 297 299 284 273 292 286 275 278 260 239 253 244
227 229 227 211 213 211 206 206 206 224 217 188 206 173 178 213 209 220 231 250 243 228 230 219 228 237 255 258 258 245 250 358 316 283 0 83 209 280 275 249 234 247 258 271 298 288 256
224 222 225 228 219 215 210 215 210 214 223 213 175 201 151 215 227 231 225 236 226 221 243 237 253 257 253 258 255 265 268 272 242 270 140 108 253 277 282 302 339 279 271 285 269 237 259
226 221 216 222 224 222 216 211 215 213 212 203 195 225 189 200 232 229 231 206 228 229 221 210 228 234 239 244 249 244 258 263 252 251 266 240 252 261 261 270 279 268 268 270 268 270 257
230 223 214 213 218 217 213 215 208 201 194 227 174 188 236 239 212 205 209 229 238 237 221 216 228 238 230 243 250 258 252 263 258 231 245 236 249 259 260 257 258 265 263 256 257 258 257
229 223 215 211 213 215 218 211 203 201 186 214 163 182 359 210 222 235 208 225 224 236 257 265 239 281 262 259 279 285 288 281 267 261 253 252 249 253 265 265 272 259 247 249 256 253 249
233 225 216 212 218 211 210 207 202 200 199 236 212 208 210 249 242 224 240 262 229 241 231 262 262 240 192 43 318 252 259 254 252 251 241 244 237 245 263 277 259 268 263 271 268 260 248
231 226 216 220 219 211 208 204 201 201 196 209 188 213 217 251 245 234 248 239 250 237 229 235 249 243 133 69 258 239 230 254 243 242 237 229 238 246 244 252 270 276 270 261 243 262 253
224 223 219 210 220 212 203 205 201 200 190 199 192 201 226 263 240 238 235 234 276 279 276 247 243 223 225 236 211 244 247 251 237 195 210 227 222 224 220 236 249 251 37 335 273 263 276
219 217 216 212 202 211 210 208 201 198 191 186 183 182 192 227 237 224 213 236 218 226 268 53 355 319 236 206 220 241 251 244 246 246 216 202 217 232 238 251 270 282 334 253 224 316 344
217 212 211 208 205 204 195 208 207 197 185 184 184 191 198 213 242 231 245 242 237 230 254 185 311 233 295 255 239 336 260 241 236 235 258 253 240 222 228 242 257 15 264 270 355 327 336
215 210 206 205 202 197 193 190 172 192 198 187 189 189 202 226 285 231 281 277 260 256 271 212 269 309 191 254 241 291 293 276 299 257 185 231 227 284 264 331 353 354 343 331 334 309 305